| time (UTC) | temp F | wind direction | speed knots | gust knots | rain 1hr in | rain 24hr in | rain mn in | humidity % | barometer mb |
| 20260505195445 | 50 | 83 | 2.6 | 9.6 | 0.00 | 0.00 | 0.00 | 77 | 1018.0 |
| 20260505194945 | 50 | 35 | 3.5 | 9.6 | 0.00 | 0.00 | 0.00 | 77 | 1018.0 |
| 20260505194445 | 50 | 337 | 3.5 | 9.6 | 0.00 | 0.00 | 0.00 | 77 | 1017.9 |
| 20260505193945 | 51 | 62 | 2.6 | 6.1 | 0.00 | 0.00 | 0.00 | 77 | 1017.8 |
| 20260505193445 | 51 | 345 | 2.6 | 6.1 | 0.00 | 0.00 | 0.00 | 76 | 1017.8 |
| 20260505192943 | 51 | 4 | 2.6 | 6.1 | 0.00 | 0.00 | 0.00 | 76 | 1017.6 |
| 20260505192443 | 51 | 1 | 2.6 | 7.8 | 0.00 | 0.00 | 0.00 | 76 | 1017.5 |
| 20260505191943 | 51 | 16 | 3.5 | 7.8 | 0.00 | 0.00 | 0.00 | 76 | 1017.5 |
| 20260505191937 | 51 | 358 | 3.5 | 7.8 | 0.00 | 0.00 | 0.00 | 76 | 1017.5 |
| 20260505190939 | 51 | 18 | 2.6 | 7.8 | 0.00 | 0.00 | 0.00 | 76 | 1017.5 |
| 20260505190434 | 52 | 0 | 0.9 | 6.1 | 0.00 | 0.00 | 0.00 | 76 | 1017.3 |
| 20260505185935 | 52 | 344 | 2.6 | 6.1 | 0.00 | 0.00 | 0.00 | 76 | 1017.3 |
| 20260505185432 | 52 | 0 | 3.5 | 6.1 | 0.00 | 0.00 | 0.00 | 76 | 1017.3 |
| 20260505184932 | 52 | 90 | 1.7 | 6.1 | 0.00 | 0.00 | 0.00 | 76 | 1017.3 |
| 20260505184432 | 52 | 90 | 2.6 | 6.1 | 0.00 | 0.00 | 0.00 | 76 | 1017.3 |
| 20260505183934 | 52 | 276 | 2.6 | 6.1 | 0.00 | 0.00 | 0.00 | 76 | 1017.2 |
| 20260505183432 | 53 | 17 | 1.7 | 6.1 | 0.00 | 0.00 | 0.00 | 76 | 1017.1 |
| 20260505182932 | 53 | 357 | 1.7 | 4.3 | 0.00 | 0.00 | 0.00 | 76 | 1017.2 |
| 20260505182431 | 53 | 327 | 2.6 | 4.3 | 0.00 | 0.00 | 0.00 | 76 | 1017.1 |
| 20260505181932 | 53 | 94 | 1.7 | 6.1 | 0.00 | 0.00 | 0.00 | 76 | 1017.1 |
| 20260505181432 | 53 | 0 | 2.6 | 6.1 | 0.00 | 0.00 | 0.00 | 75 | 1017.1 |
| 20260505180932 | 53 | 0 | 1.7 | 4.3 | 0.00 | 0.00 | 0.00 | 75 | 1017.2 |
| 20260505180430 | 53 | 345 | 1.7 | 2.6 | 0.00 | 0.00 | 0.00 | 75 | 1017.1 |
| 20260505175932 | 53 | 347 | 1.7 | 3.5 | 0.00 | 0.00 | 0.00 | 76 | 1017.1 |
| 20260505175431 | 53 | 340 | 1.7 | 4.3 | 0.00 | 0.00 | 0.00 | 75 | 1017.1 |
| 20260505175150 | 53 | 330 | 1.7 | 4.3 | 0.00 | 0.00 | 0.00 | 75 | 1017.1 |
| 20260505174430 | 54 | 321 | 1.7 | 5.2 | 0.00 | 0.00 | 0.00 | 75 | 1017.0 |
| 20260505173931 | 54 | 337 | 1.7 | 6.1 | 0.00 | 0.00 | 0.00 | 74 | 1017.0 |
| 20260505173654 | 54 | 309 | 3.5 | 6.1 | 0.00 | 0.00 | 0.00 | 72 | 1017.0 |
| 20260505172930 | 54 | 303 | 1.7 | 8.7 | 0.00 | 0.00 | 0.00 | 71 | 1017.0 |
| 20260505172430 | 54 | 347 | 2.6 | 8.7 | 0.00 | 0.00 | 0.00 | 71 | 1017.1 |
| 20260505171931 | 55 | 271 | 3.5 | 5.2 | 0.00 | 0.00 | 0.00 | 70 | 1017.0 |
| 20260505171647 | 55 | 326 | 3.5 | 5.2 | 0.00 | 0.00 | 0.00 | 70 | 1017.0 |
| 20260505170928 | 55 | 295 | 1.7 | 5.2 | 0.00 | 0.00 | 0.00 | 70 | 1017.0 |
| 20260505170428 | 55 | 254 | 1.7 | 5.2 | 0.00 | 0.00 | 0.00 | 71 | 1017.0 |
| 20260505165929 | 55 | 283 | 1.7 | 5.2 | 0.00 | 0.00 | 0.00 | 71 | 1017.0 |
| 20260505165650 | 55 | 279 | 2.6 | 6.1 | 0.00 | 0.00 | 0.00 | 70 | 1017.0 |
| 20260505165646 | 55 | 269 | 3.5 | 6.1 | 0.00 | 0.00 | 0.00 | 70 | 1017.1 |
| 20260505164647 | 55 | 278 | 3.5 | 5.2 | 0.00 | 0.00 | 0.00 | 70 | 1017.1 |
| 20260505163927 | 55 | 228 | 2.6 | 5.2 | 0.00 | 0.00 | 0.00 | 70 | 1017.0 |
| 20260505163427 | 55 | 282 | 3.5 | 4.3 | 0.00 | 0.00 | 0.00 | 70 | 1017.1 |
| 20260505162927 | 56 | 286 | 0.9 | 5.2 | 0.00 | 0.00 | 0.00 | 70 | 1017.1 |
| 20260505162427 | 56 | 289 | 2.6 | 6.1 | 0.00 | 0.00 | 0.00 | 68 | 1017.0 |
| 20260505161927 | 56 | 255 | 3.5 | 6.1 | 0.00 | 0.00 | 0.00 | 68 | 1017.0 |
| 20260505161647 | 56 | 244 | 3.5 | 5.2 | 0.00 | 0.00 | 0.00 | 66 | 1016.9 |
| 20260505160925 | 57 | 262 | 0.9 | 3.5 | 0.00 | 0.00 | 0.00 | 64 | 1016.9 |
| 20260505160427 | 57 | 262 | 1.7 | 4.3 | 0.00 | 0.00 | 0.00 | 64 | 1017.0 |
| 20260505152925 | 56 | 213 | 1.7 | 4.3 | 0.00 | 0.00 | 0.00 | 67 | 1017.1 |
| 20260505152425 | 57 | 261 | 3.5 | 5.2 | 0.00 | 0.00 | 0.00 | 68 | 1017.1 |
| 20260505151926 | 56 | 259 | 1.7 | 5.2 | 0.00 | 0.00 | 0.00 | 68 | 1017.0 |
| 20260505151425 | 56 | 240 | 2.6 | 7.8 | 0.00 | 0.00 | 0.00 | 68 | 1017.0 |
| 20260505150925 | 56 | 190 | 3.5 | 7.8 | 0.00 | 0.00 | 0.00 | 69 | 1017.0 |
| 20260505150426 | 56 | 271 | 3.5 | 7.8 | 0.00 | 0.00 | 0.00 | 70 | 1017.1 |
| 20260505140423 | 55 | 258 | 1.7 | 4.3 | 0.00 | 0.00 | 0.00 | 70 | 1017.3 |
| 20260505124922 | 55 | 295 | 3.5 | 9.6 | 0.00 | 0.00 | 0.00 | 72 | 1017.4 |
| 20260505124423 | 55 | 180 | 2.6 | 8.7 | 0.00 | 0.00 | 0.00 | 72 | 1017.4 |
| 20260505123923 | 55 | 323 | 3.5 | 8.7 | 0.00 | 0.00 | 0.00 | 71 | 1017.5 |
| 20260505123422 | 55 | 271 | 2.6 | 8.7 | 0.00 | 0.00 | 0.00 | 71 | 1017.5 |
| 20260505122922 | 55 | 268 | 3.5 | 6.1 | 0.00 | 0.00 | 0.00 | 72 | 1017.4 |
| 20260505122422 | 55 | 251 | 2.6 | 7.8 | 0.00 | 0.00 | 0.00 | 70 | 1017.4 |
| 20260505122407 | 55 | 290 | 2.6 | 7.8 | 0.00 | 0.00 | 0.00 | 71 | 1017.4 |
| 20260505121422 | 55 | 329 | 3.5 | 6.1 | 0.00 | 0.00 | 0.00 | 72 | 1017.4 |
| 20260505120922 | 55 | 255 | 3.5 | 6.1 | 0.00 | 0.00 | 0.00 | 72 | 1017.5 |
| 20260505120422 | 55 | 266 | 3.5 | 6.1 | 0.00 | 0.00 | 0.00 | 71 | 1017.5 |
| 20260505115922 | 55 | 334 | 3.5 | 7.8 | 0.00 | 0.00 | 0.00 | 71 | 1017.5 |
| 20260505115421 | 54 | 272 | 4.3 | 7.8 | 0.00 | 0.00 | 0.00 | 73 | 1017.5 |
| 20260505114921 | 53 | 266 | 1.7 | 5.2 | 0.00 | 0.00 | 0.00 | 72 | 1017.5 |
| 20260505114421 | 53 | 334 | 2.6 | 6.1 | 0.00 | 0.00 | 0.00 | 72 | 1017.6 |
| 20260505113921 | 53 | 298 | 1.7 | 6.1 | 0.00 | 0.00 | 0.00 | 72 | 1017.6 |
| 20260505113421 | 53 | 248 | 3.5 | 6.1 | 0.00 | 0.00 | 0.00 | 72 | 1017.6 |
| 20260505112921 | 53 | 326 | 2.6 | 6.1 | 0.00 | 0.00 | 0.00 | 72 | 1017.7 |
| 20260505112419 | 53 | 323 | 1.7 | 6.1 | 0.00 | 0.00 | 0.00 | 72 | 1017.7 |
| 20260505111921 | 53 | 283 | 1.7 | 6.1 | 0.00 | 0.00 | 0.00 | 73 | 1017.8 |
| 20260505111421 | 53 | 295 | 2.6 | 4.3 | 0.00 | 0.00 | 0.00 | 73 | 1017.7 |
| 20260505111151 | 53 | 11 | 2.6 | 6.1 | 0.00 | 0.00 | 0.00 | 74 | 1017.6 |
| 20260505110642 | 53 | 293 | 3.5 | 6.1 | 0.00 | 0.00 | 0.00 | 74 | 1017.6 |
| 20260505102150 | 53 | 302 | 4.3 | 9.6 | 0.00 | 0.00 | 0.00 | 71 | 1017.9 |
| 20260505101905 | 53 | 333 | 3.5 | 7.8 | 0.00 | 0.00 | 0.00 | 71 | 1017.8 |
| 20260505100919 | 53 | 310 | 3.5 | 7.8 | 0.00 | 0.00 | 0.00 | 71 | 1017.8 |
| 20260505100417 | 54 | 4 | 4.3 | 7.8 | 0.00 | 0.00 | 0.00 | 70 | 1017.7 |
| 20260505100140 | 54 | 306 | 1.7 | 8.7 | 0.00 | 0.00 | 0.00 | 69 | 1017.7 |
| 20260505095419 | 55 | 305 | 2.6 | 8.7 | 0.00 | 0.00 | 0.00 | 69 | 1017.7 |
| 20260505094919 | 54 | 313 | 1.7 | 6.1 | 0.00 | 0.00 | 0.00 | 71 | 1017.6 |
| 20260505094419 | 53 | 295 | 2.6 | 6.1 | 0.00 | 0.00 | 0.00 | 72 | 1017.7 |
| 20260505093920 | 53 | 292 | 3.5 | 6.1 | 0.00 | 0.00 | 0.00 | 74 | 1017.8 |
| 20260505093418 | 53 | 299 | 1.7 | 6.1 | 0.00 | 0.00 | 0.00 | 74 | 1017.7 |
| 20260505092919 | 52 | 305 | 2.6 | 6.1 | 0.00 | 0.00 | 0.00 | 76 | 1017.8 |
| 20260505092418 | 52 | 0 | 3.5 | 7.8 | 0.00 | 0.00 | 0.00 | 76 | 1017.8 |
| 20260505091919 | 51 | 341 | 2.6 | 7.8 | 0.00 | 0.00 | 0.00 | 76 | 1017.8 |
| 20260505091417 | 51 | 300 | 3.5 | 5.2 | 0.00 | 0.00 | 0.00 | 78 | 1017.8 |
| 20260505090918 | 51 | 288 | 1.7 | 5.2 | 0.00 | 0.00 | 0.00 | 79 | 1017.8 |
| 20260505090417 | 51 | 319 | 2.6 | 7.8 | 0.00 | 0.00 | 0.00 | 80 | 1017.8 |
| 20260505085918 | 51 | 0 | 1.7 | 7.8 | 0.00 | 0.00 | 0.00 | 80 | 1017.9 |
| 20260505085417 | 51 | 6 | 1.7 | 4.3 | 0.00 | 0.00 | 0.00 | 80 | 1017.9 |
| 20260505084918 | 51 | 292 | 2.6 | 4.3 | 0.00 | 0.00 | 0.00 | 81 | 1017.9 |
| 20260505084416 | 51 | 0 | 2.6 | 4.3 | 0.00 | 0.00 | 0.00 | 83 | 1017.8 |
| 20260505083919 | 51 | 321 | 0.9 | 3.5 | 0.00 | 0.00 | 0.00 | 84 | 1017.9 |
| 20260505083638 | 51 | 306 | 1.7 | 3.5 | 0.00 | 0.00 | 0.00 | 86 | 1017.9 |
| 20260505082917 | 51 | 289 | 0.9 | 3.5 | 0.00 | 0.00 | 0.00 | 86 | 1017.9 |
| 20260505082417 | 51 | 289 | 1.7 | 4.3 | 0.00 | 0.00 | 0.00 | 87 | 1018.0 |
| 20260505081918 | 51 | 299 | 2.6 | 6.1 | 0.00 | 0.00 | 0.00 | 87 | 1018.0 |
| 20260505081417 | 50 | 248 | 2.6 | 6.1 | 0.00 | 0.00 | 0.00 | 89 | 1017.9 |
| 20260505080917 | 50 | 324 | 1.7 | 4.3 | 0.00 | 0.00 | 0.00 | 89 | 1018.0 |
| 20260505080416 | 50 | 319 | 2.6 | 4.3 | 0.00 | 0.00 | 0.00 | 91 | 1018.0 |
| 20260505075917 | 49 | 288 | 1.7 | 3.5 | 0.00 | 0.00 | 0.00 | 91 | 1017.9 |
| 20260505075416 | 49 | 283 | 0.0 | 3.5 | 0.00 | 0.00 | 0.00 | 92 | 1017.9 |
| 20260505074917 | 49 | 305 | 0.9 | 2.6 | 0.00 | 0.00 | 0.00 | 93 | 1017.9 |
| 20260505074415 | 49 | 351 | 0.0 | 1.7 | 0.00 | 0.00 | 0.00 | 93 | 1017.8 |
| 20260505073917 | 48 | 351 | 0.0 | 3.5 | 0.00 | 0.00 | 0.00 | 94 | 1017.8 |
| 20260505073416 | 48 | 0 | 0.9 | 3.5 | 0.00 | 0.00 | 0.00 | 94 | 1017.8 |
| 20260505073139 | 48 | 275 | 1.7 | 2.6 | 0.00 | 0.00 | 0.00 | 94 | 1017.8 |
| 20260505072414 | 48 | 314 | 0.0 | 2.6 | 0.00 | 0.00 | 0.00 | 95 | 1017.9 |
| 20260505071916 | 47 | 317 | 0.9 | 2.6 | 0.00 | 0.00 | 0.00 | 95 | 1017.9 |
| 20260505071415 | 47 | 0 | 0.9 | 4.3 | 0.00 | 0.00 | 0.00 | 95 | 1017.9 |
| 20260505070916 | 47 | 4 | 1.7 | 4.3 | 0.00 | 0.00 | 0.00 | 95 | 1017.9 |
| 20260505070415 | 47 | 340 | 1.7 | 3.5 | 0.00 | 0.00 | 0.00 | 95 | 1017.8 |
| 20260505065915 | 47 | 355 | 0.0 | 0.9 | 0.00 | 0.00 | 0.00 | 95 | 1017.8 |
| 20260505065414 | 47 | 355 | 0.0 | 1.7 | 0.00 | 0.00 | 0.00 | 95 | 1017.8 |
| 20260505064916 | 47 | 355 | 0.9 | 1.7 | 0.00 | 0.00 | 0.00 | 95 | 1017.8 |
| 20260505064414 | 46 | 355 | 0.9 | 2.6 | 0.00 | 0.00 | 0.00 | 95 | 1018.0 |
| 20260505063913 | 46 | 351 | 1.7 | 3.5 | 0.00 | 0.00 | 0.00 | 95 | 1018.1 |
| 20260505063858 | 46 | 351 | 0.9 | 3.5 | 0.00 | 0.00 | 0.00 | 95 | 1018.0 |
| 20260505062915 | 46 | 358 | 0.9 | 2.6 | 0.00 | 0.00 | 0.00 | 96 | 1018.0 |
| 20260505062644 | 45 | 358 | 0.0 | 4.3 | 0.00 | 0.00 | 0.00 | 96 | 1018.0 |
| 20260505061915 | 44 | 0 | 2.6 | 4.3 | 0.00 | 0.00 | 0.00 | 96 | 1018.1 |
| 20260505061414 | 44 | 255 | 0.0 | 0.0 | 0.00 | 0.00 | 0.00 | 95 | 1018.1 |
| 20260505060914 | 43 | 255 | 0.0 | 0.0 | 0.00 | 0.00 | 0.00 | 95 | 1018.0 |
| 20260505060413 | 42 | 255 | 0.0 | 1.7 | 0.00 | 0.00 | 0.00 | 95 | 1018.1 |
| 20260505055914 | 42 | 255 | 0.0 | 1.7 | 0.00 | 0.00 | 0.00 | 95 | 1018.0 |
| 20260505055413 | 41 | 255 | 0.0 | 1.7 | 0.00 | 0.00 | 0.00 | 95 | 1018.0 |
| 20260505054914 | 41 | 255 | 0.0 | 1.7 | 0.00 | 0.00 | 0.00 | 95 | 1018.0 |
| 20260505054412 | 41 | 255 | 0.0 | 1.7 | 0.00 | 0.00 | 0.00 | 94 | 1018.0 |
| 20260505053914 | 40 | 255 | 0.0 | 2.6 | 0.00 | 0.00 | 0.00 | 95 | 1018.0 |
| 20260505053413 | 40 | 255 | 0.0 | 2.6 | 0.00 | 0.00 | 0.00 | 95 | 1017.9 |
| 20260505052913 | 39 | 295 | 0.9 | 1.7 | 0.00 | 0.00 | 0.00 | 94 | 1017.9 |
| 20260505052410 | 39 | 295 | 0.0 | 0.0 | 0.00 | 0.00 | 0.00 | 94 | 1017.8 |
| 20260505051913 | 39 | 295 | 0.0 | 0.0 | 0.00 | 0.00 | 0.00 | 94 | 1017.7 |
| 20260505051412 | 39 | 295 | 0.0 | 0.0 | 0.00 | 0.00 | 0.00 | 94 | 1017.8 |
| 20260505051137 | 38 | 295 | 0.0 | 0.0 | 0.00 | 0.00 | 0.00 | 94 | 1017.8 |
| 20260505050412 | 38 | 295 | 0.0 | 0.0 | 0.00 | 0.00 | 0.00 | 94 | 1017.7 |
| 20260505041410 | 39 | 295 | 0.0 | 0.0 | 0.00 | 0.00 | 0.00 | 93 | 1017.5 |
| 20260505040911 | 39 | 295 | 0.0 | 0.0 | 0.00 | 0.00 | 0.00 | 93 | 1017.5 |
| 20260505040410 | 39 | 295 | 0.0 | 0.0 | 0.00 | 0.00 | 0.00 | 93 | 1017.4 |
| 20260505035909 | 39 | 295 | 0.0 | 0.0 | 0.00 | 0.00 | 0.00 | 93 | 1017.4 |
| 20260505035410 | 39 | 295 | 0.0 | 0.0 | 0.00 | 0.00 | 0.00 | 93 | 1017.4 |
| 20260505034910 | 39 | 295 | 0.0 | 0.0 | 0.00 | 0.00 | 0.00 | 93 | 1017.4 |
| 20260505034637 | 40 | 295 | 0.0 | 0.0 | 0.00 | 0.00 | 0.00 | 93 | 1017.4 |
| 20260505034131 | 40 | 295 | 0.0 | 0.0 | 0.00 | 0.00 | 0.00 | 93 | 1017.5 |
| 20260505033409 | 40 | 295 | 0.0 | 0.0 | 0.00 | 0.00 | 0.00 | 93 | 1017.5 |
| 20260505033130 | 40 | 295 | 0.0 | 0.0 | 0.00 | 0.00 | 0.00 | 93 | 1017.5 |
| 20260505032409 | 40 | 295 | 0.0 | 0.0 | 0.00 | 0.00 | 0.00 | 93 | 1017.5 |
| 20260505031909 | 40 | 295 | 0.0 | 0.0 | 0.00 | 0.00 | 0.00 | 93 | 1017.5 |
| 20260505031409 | 40 | 295 | 0.0 | 0.0 | 0.00 | 0.00 | 0.00 | 93 | 1017.5 |
| 20260505030908 | 40 | 295 | 0.0 | 0.0 | 0.00 | 0.00 | 0.00 | 93 | 1017.5 |
| 20260505030630 | 40 | 295 | 0.0 | 0.0 | 0.00 | 0.00 | 0.00 | 93 | 1017.7 |
| 20260505025908 | 40 | 295 | 0.0 | 0.0 | 0.00 | 0.00 | 0.00 | 93 | 1017.6 |
| 20260505025408 | 40 | 295 | 0.0 | 0.0 | 0.00 | 0.00 | 0.00 | 93 | 1017.7 |
| 20260505025124 | 40 | 295 | 0.0 | 0.0 | 0.00 | 0.00 | 0.00 | 93 | 1017.6 |
| 20260505024628 | 41 | 295 | 0.0 | 0.0 | 0.00 | 0.00 | 0.00 | 93 | 1017.6 |
| 20260505024141 | 41 | 295 | 0.0 | 0.0 | 0.00 | 0.00 | 0.00 | 93 | 1017.7 |
| 20260505023407 | 41 | 295 | 0.0 | 0.0 | 0.00 | 0.00 | 0.00 | 93 | 1017.7 |
| 20260505022907 | 41 | 295 | 0.0 | 0.0 | 0.00 | 0.00 | 0.00 | 93 | 1017.9 |
| 20260505022622 | 41 | 295 | 0.0 | 0.0 | 0.00 | 0.00 | 0.00 | 93 | 1017.8 |
| 20260505021906 | 41 | 295 | 0.0 | 0.0 | 0.00 | 0.00 | 0.00 | 93 | 1017.8 |
| 20260505021406 | 41 | 295 | 0.0 | 0.0 | 0.00 | 0.00 | 0.00 | 92 | 1017.9 |
| 20260505020905 | 41 | 295 | 0.0 | 0.0 | 0.00 | 0.00 | 0.00 | 93 | 1017.8 |
| 20260505020830 | 41 | 295 | 0.0 | 0.0 | 0.00 | 0.00 | 0.00 | 93 | 1017.8 |
| 20260505020826 | 41 | 295 | 0.0 | 0.0 | 0.00 | 0.00 | 0.00 | 92 | 1017.9 |
| 20260505015628 | 41 | 295 | 0.0 | 0.0 | 0.00 | 0.00 | 0.00 | 92 | 1017.9 |
| 20260505015123 | 41 | 295 | 0.0 | 0.0 | 0.00 | 0.00 | 0.00 | 92 | 1017.8 |
| 20260505014405 | 41 | 295 | 0.0 | 0.0 | 0.00 | 0.00 | 0.00 | 92 | 1017.9 |
| 20260505014347 | 42 | 295 | 0.0 | 0.0 | 0.00 | 0.00 | 0.00 | 92 | 1017.9 |
| 20260505013405 | 42 | 295 | 0.0 | 0.0 | 0.00 | 0.00 | 0.00 | 92 | 1018.0 |
| 20260505013123 | 42 | 295 | 0.0 | 0.0 | 0.00 | 0.00 | 0.00 | 92 | 1018.1 |
| 20260505012404 | 42 | 295 | 0.0 | 0.0 | 0.00 | 0.00 | 0.00 | 92 | 1018.1 |
| 20260505011905 | 42 | 295 | 0.0 | 0.0 | 0.00 | 0.00 | 0.00 | 92 | 1018.1 |
| 20260505011405 | 42 | 295 | 0.0 | 0.0 | 0.00 | 0.00 | 0.00 | 92 | 1018.2 |
| 20260505010904 | 42 | 295 | 0.0 | 0.0 | 0.00 | 0.00 | 0.00 | 92 | 1018.2 |
| 20260505010404 | 42 | 295 | 0.0 | 0.0 | 0.00 | 0.00 | 0.00 | 92 | 1018.2 |
| 20260505005904 | 42 | 295 | 0.0 | 0.0 | 0.00 | 0.00 | 0.00 | 92 | 1018.3 |
| 20260505005405 | 42 | 295 | 0.0 | 0.0 | 0.00 | 0.00 | 0.00 | 92 | 1018.2 |
| 20260505004904 | 42 | 295 | 0.0 | 0.0 | 0.00 | 0.00 | 0.00 | 92 | 1018.3 |
| 20260505004402 | 42 | 295 | 0.0 | 0.0 | 0.00 | 0.00 | 0.00 | 92 | 1018.4 |
| 20260505004132 | 42 | 295 | 0.0 | 0.0 | 0.00 | 0.00 | 0.00 | 92 | 1018.4 |
| 20260505003621 | 43 | 295 | 0.0 | 0.0 | 0.00 | 0.00 | 0.00 | 92 | 1018.4 |
| 20260505002903 | 43 | 295 | 0.0 | 0.9 | 0.00 | 0.00 | 0.00 | 91 | 1018.4 |
| 20260505002404 | 43 | 295 | 0.0 | 0.9 | 0.00 | 0.00 | 0.00 | 91 | 1018.4 |
| 20260505001903 | 43 | 295 | 0.0 | 0.0 | 0.00 | 0.00 | 0.00 | 91 | 1018.5 |
| 20260505001403 | 43 | 295 | 0.0 | 0.0 | 0.00 | 0.00 | 0.00 | 91 | 1018.5 |
| 20260505000903 | 43 | 295 | 0.0 | 0.0 | 0.00 | 0.00 | 0.00 | 91 | 1018.4 |
| 20260505000402 | 43 | 295 | 0.0 | 0.0 | 0.00 | 0.00 | 0.00 | 91 | 1018.6 |
| 20260504235903 | 43 | 295 | 0.0 | 0.0 | 0.00 | 0.00 | 0.00 | 91 | 1018.5 |
| 20260504235405 | 44 | 295 | 0.0 | 0.0 | 0.00 | 0.00 | 0.00 | 91 | 1018.6 |
| 20260504234902 | 44 | 295 | 0.0 | 0.0 | 0.00 | 0.00 | 0.00 | 91 | 1018.6 |
| 20260504234403 | 44 | 295 | 0.0 | 0.0 | 0.00 | 0.00 | 0.00 | 91 | 1018.6 |
| 20260504233902 | 44 | 295 | 0.0 | 0.0 | 0.00 | 0.00 | 0.00 | 90 | 1018.6 |
| 20260504233404 | 44 | 295 | 0.0 | 0.0 | 0.00 | 0.00 | 0.00 | 90 | 1018.6 |
| 20260504232903 | 44 | 295 | 0.0 | 0.0 | 0.00 | 0.00 | 0.00 | 90 | 1018.7 |
| 20260504232400 | 44 | 295 | 0.0 | 0.0 | 0.00 | 0.00 | 0.00 | 90 | 1018.6 |
| 20260504231902 | 44 | 295 | 0.0 | 0.0 | 0.00 | 0.00 | 0.00 | 90 | 1018.5 |
| 20260504231854 | 44 | 295 | 0.0 | 0.0 | 0.00 | 0.00 | 0.00 | 90 | 1018.5 |
| 20260504230903 | 44 | 295 | 0.0 | 0.0 | 0.00 | 0.00 | 0.00 | 90 | 1018.5 |
| 20260504230404 | 44 | 295 | 0.0 | 0.0 | 0.00 | 0.00 | 0.00 | 90 | 1018.6 |
| 20260504225903 | 45 | 295 | 0.0 | 0.0 | 0.00 | 0.00 | 0.00 | 90 | 1018.6 |
| 20260504225404 | 45 | 295 | 0.0 | 0.0 | 0.00 | 0.00 | 0.00 | 90 | 1018.6 |
| 20260504224904 | 45 | 295 | 0.0 | 0.0 | 0.00 | 0.00 | 0.00 | 89 | 1018.6 |
| 20260504224403 | 45 | 295 | 0.0 | 0.0 | 0.00 | 0.00 | 0.00 | 89 | 1018.7 |
| 20260504223903 | 45 | 295 | 0.0 | 0.0 | 0.00 | 0.00 | 0.00 | 89 | 1018.8 |
| 20260504223403 | 45 | 295 | 0.0 | 0.0 | 0.00 | 0.00 | 0.00 | 89 | 1018.8 |
| 20260504222900 | 45 | 295 | 0.0 | 1.7 | 0.00 | 0.00 | 0.00 | 89 | 1018.8 |
| 20260504222402 | 45 | 295 | 0.0 | 1.7 | 0.00 | 0.00 | 0.00 | 89 | 1018.9 |
| 20260504221900 | 46 | 298 | 0.0 | 1.7 | 0.00 | 0.00 | 0.00 | 88 | 1019.0 |
| 20260504221402 | 46 | 299 | 0.0 | 0.9 | 0.00 | 0.00 | 0.00 | 88 | 1018.8 |
| 20260504221123 | 46 | 299 | 0.0 | 0.9 | 0.00 | 0.00 | 0.00 | 88 | 1018.9 |
| 20260504220401 | 46 | 299 | 0.0 | 0.9 | 0.00 | 0.00 | 0.00 | 88 | 1018.9 |
| 20260504215900 | 46 | 299 | 0.0 | 0.0 | 0.00 | 0.00 | 0.00 | 87 | 1018.8 |
| 20260504215401 | 46 | 299 | 0.0 | 0.0 | 0.00 | 0.00 | 0.00 | 87 | 1018.9 |
| 20260504214859 | 47 | 299 | 0.0 | 0.0 | 0.00 | 0.00 | 0.00 | 86 | 1018.9 |
| 20260504214401 | 47 | 299 | 0.0 | 0.0 | 0.00 | 0.00 | 0.00 | 86 | 1018.9 |
| 20260504213859 | 47 | 299 | 0.0 | 0.0 | 0.00 | 0.00 | 0.00 | 86 | 1018.9 |
| 20260504213402 | 47 | 299 | 0.0 | 0.0 | 0.00 | 0.00 | 0.00 | 86 | 1018.9 |
| 20260504212859 | 47 | 299 | 0.0 | 0.0 | 0.00 | 0.00 | 0.00 | 85 | 1018.9 |
| 20260504212400 | 48 | 299 | 0.0 | 0.0 | 0.00 | 0.00 | 0.00 | 85 | 1018.8 |
| 20260504211858 | 48 | 299 | 0.0 | 0.0 | 0.00 | 0.00 | 0.00 | 85 | 1018.9 |
| 20260504211359 | 48 | 299 | 0.0 | 0.0 | 0.00 | 0.00 | 0.00 | 84 | 1018.9 |
| 20260504210859 | 49 | 299 | 0.0 | 0.0 | 0.00 | 0.00 | 0.00 | 83 | 1018.9 |
| 20260504210359 | 49 | 299 | 0.0 | 0.0 | 0.00 | 0.00 | 0.00 | 83 | 1019.0 |
| 20260504210117 | 49 | 299 | 0.0 | 0.9 | 0.00 | 0.00 | 0.00 | 83 | 1019.0 |
| 20260504205359 | 50 | 299 | 0.0 | 0.9 | 0.00 | 0.00 | 0.00 | 82 | 1018.9 |
| 20260504205116 | 50 | 299 | 0.0 | 0.9 | 0.00 | 0.00 | 0.00 | 82 | 1018.9 |
| 20260504204620 | 50 | 299 | 0.0 | 0.9 | 0.00 | 0.00 | 0.00 | 82 | 1018.9 |
| 20260504203857 | 50 | 299 | 0.0 | 0.9 | 0.00 | 0.00 | 0.00 | 81 | 1018.9 |
| 20260504203359 | 50 | 299 | 0.0 | 0.9 | 0.00 | 0.00 | 0.00 | 81 | 1018.9 |
| 20260504202857 | 51 | 299 | 0.0 | 0.9 | 0.00 | 0.00 | 0.00 | 81 | 1018.7 |
| 20260504202358 | 51 | 299 | 0.0 | 2.6 | 0.00 | 0.00 | 0.00 | 80 | 1018.7 |
| 20260504201857 | 51 | 299 | 0.9 | 2.6 | 0.00 | 0.00 | 0.00 | 80 | 1018.8 |
| 20260504201621 | 51 | 302 | 0.0 | 2.6 | 0.00 | 0.00 | 0.00 | 80 | 1018.7 |
| 20260504200856 | 51 | 303 | 0.9 | 2.6 | 0.00 | 0.00 | 0.00 | 80 | 1018.7 |
| 20260504200356 | 52 | 303 | 1.7 | 2.6 | 0.00 | 0.00 | 0.00 | 79 | 1018.8 |